Location: Siratepeler Tepesi
(39.1042°N, 32.0781°E)
Time: 12:47:38
(UTC+00:00)

Cosmos 1703 Rocket - Pass Details

Date: 11 April 2026
Orbit: 597 x 626 km, 82.5° (Epoch: 12 May)

Event Time Altitude Azimuth Distance (km) Brightness Sun altitude
Rises 18:13:20 0° 349° (NNW) 2,865 7.6 -20.4°
Reaches altitude 10° 18:15:35 10° 346° (NNW) 1,953 6.7 -20.8°
Maximum altitude 18:19:50 63° 266° (W) 670 3.8 -21.5°
Enters shadow 18:21:44 31° 195° (SSW) 1,055 4.5 -21.8°
